sat.trackr.live / text

‹ back to catalog

STARLINK-4746

NORAD 53846 · 2022-114AE

PAYLOAD ACTIVE UNKNOWN

§ Identity

Operator
Country
US
Launch date
2022-09-19
Launch site
AFETR
Launch vehicle
Mass (kg)
RCS (m²)

Purposes: comms

External: N2YO · Heavens-Above · Gunter

§ Orbital elements

Epoch: 2026-05-25T04:37:51.900384Z

Period
95.44 min
Inclination
53.2153°
Eccentricity
0.0001295
Mean motion
15.08842054 rev/d
Perigee alt
538.8 km
Apogee alt
540.6 km
Semi-major
6,917.9 km
B*
4.4866e-5
RAAN
310.4972°
Arg perigee
79.9043°
Mean anomaly
280.2095°
Rev number
20,452

§ Raw data

STARLINK-47461 53846U 22114AE  26145.19296181  .00000426  00000+0  44866-4 0  99942 53846  53.2153 310.4972 0001295  79.9043 280.2095 15.08842054204528

JSON: /api/v1/satellites/53846 · /tle

For live sub-satellite position, see the globe view (requires WebGL).

§ Visibility from observer

Set your observer location to see the next 7 days of passes ≥ 10°. The values pass through the URL so the page stays shareable.

No JS? Fill the form by hand. The geolocation button needs JavaScript.